Regional Weather Roundup
Issued by NWS

Home | Current Version | Previous Version | Text Only | Print | Product List | Glossary Off
Versions: 1 2 3 4 5 6 7 8 9 10 11 12 13 14 15 16 17 18 19 20 21 22 23 24 25 26 27 28 29 30 31 32 33 34 35 36 37 38 39 40 41 42 43 44 45 46 47 48 49 50

625
ASUS44 KJAN 030210
RWRMS

MISSISSIPPI HOURLY WEATHER ROUNDUP
NATIONAL WEATHER SERVICE JACKSON MS
800 PM CST MON MAR 02 2015

NOTE: "FAIR: INDICATES FEW OR NO CLOUDS BELOW 12,000 FEET WITH NO
SIGNIFICANT WEATHER AND/OR OBSTRUCTIONS TO VISIBILITY.

MSZ001>002-007>008-010>013-018>021-025>028-034>036-030300-
NORTHWEST MISSISSIPPI

CITY           SKY/WX    TMP DP  RH WIND       PRES   REMARKS
CLARKSDALE     CLOUDY    39  39 100 NE7       30.28F WCI  34
CLEVELAND      CLOUDY    40  40 100 NE5       30.27F FOG
GREENWOOD      CLOUDY    44  43  96 E7        30.27S
GREENVILLE     CLOUDY    40  39  97 NE7       30.27F FOG
OLIVE BRANCH   CLOUDY    39  39 100 E3        30.27F
OXFORD         CLOUDY    39  37  93 E3        30.29S FOG
TUNICA         CLOUDY    41  37  87 CALM      30.29F
$$

MSZ003>006-009-014>017-022>024-029>033-037>039-030300-
NORTHEAST MISSISSIPPI

CITY           SKY/WX    TMP DP  RH WIND       PRES   REMARKS
COLUMBUS AFB   CLOUDY    46  46 100 NE2       30.27S
CORINTH        CLOUDY    45  41  87 CALM      30.26F
GOLDN TRIANGLE CLOUDY    46  43  87 N6        30.26
STARKVILLE     CLOUDY    45  45 100 NE5       30.27F FOG
TUPELO         CLOUDY    44  41  89 E6        30.28F FOG
$$

MSZ040-058-030300-
CENTRAL MISSISSIPPI

CITY           SKY/WX    TMP DP  RH WIND       PRES   REMARKS
JACKSON INTL   FOG       53  52  96 N7        30.24R VSB 1/2
JACKSON HAWKNS FOG       51  50  96 CALM      30.24S VSB 1/2
MERIDIAN KEY   CLOUDY    53  52  96 NE6       30.25S
MERIDIAN NAS   RAIN      51  50  96 NE3       30.26S FOG
VICKSBURG      CLOUDY    44  43  96 N7        30.26S FOG
$$

MSZ059>079-030300-
SOUTH MISSISSIPPI

CITY           SKY/WX    TMP DP  RH WIND       PRES   REMARKS
BROOKHAVEN     CLOUDY    54  54 100 CALM      30.24R
HATTIESBURG    FOG       62  61  96 E3        30.23R VSB 1/2
MCCOMB         CLOUDY    62  61  96 CALM      30.20S FOG
NATCHEZ        CLOUDY    45  43  93 N5        30.25R
PINE BELT      CLOUDY    61  57  88 E5        30.23F
$$

MSZ080>082-030300-
COASTAL MISSISSIPPI

CITY           SKY/WX    TMP DP  RH WIND       PRES   REMARKS
BAY ST LOUIS   FOG       64  61  88 E5        30.22R VSB 1/2
BILOXI         FOG       63  63 100 NE3       30.21R VSB 1/2
PASCAGOULA     FOG       63  63 100 SE5       30.21S VSB 1
GULFPORT       FOG       63  62  97 CALM      30.21R VSB 1/4
$$



USA.gov is the U.S. government's official web portal to all federal, state and local government web resources and services.